Powrót do katalogu

NOAA 16 DEB

AktywnyPO
NORAD 41526·DEBRIS·🇺🇸 United States

Wystrzelony Sep 21, 2000 z Vandenberg Space Force Base

Loading…

Następne Przeloty (najbliższe 24 godziny)

TLE

ŚwieżeSource: Space-Track

Epoka: Sep 14, 2026, 01:13 UTC

1 41526U 00055NA  26257.05077090  .00004715  00000-0  11893-2 0  9999
2 41526  98.9913 107.3497 0017428 293.1557  66.7799 14.51505436545534

Śledź NOAA 16 DEB w czasie rzeczywistym z AllMySat

Download on the App Store